Currituck — AEFR — position and weather

sailwx.info

Track history (hours):
 
Tides and Currents Weather Stations Pressure Air Temp Water Temp Dewpoint Dewpoint Depression Visibility Wind Speed Wind Dir Waves Ship Positions

Currituck

Last reported at 2014-Oct-25 13:33 UTC. Time now 2014-Oct-26 09:33 UTC.
Position N 35°12' W 075°44'.

Length 45 m; draft 3 m.

Type: Dredging. MMSI: 369970446.

Date/timePositionNaut miles runAvg speedWind from/ knotsBaromVisibWave heightAir tempDewpointWater temp
2014-Oct-25 13:33N 35°12' W 075°44'  
2014-Oct-18 19:28N 36°47' W 076°18'7 7.4
2014-Oct-18 18:33N 36°53' W 076°20'8 7.6
2014-Oct-18 17:33N 37°00' W 076°16'8 7.6
2014-Oct-18 16:33N 36°59' W 076°07'4 4.4
2014-Oct-18 15:33N 36°54' W 076°05'1 0.7
2014-Oct-18 14:32N 36°55' W 076°05'1 0.7
2014-Oct-18 13:33N 36°54' W 076°05'0 0.0
2014-Oct-18 12:32N 36°54' W 076°05'0 0.2
2014-Oct-18 11:33N 36°55' W 076°06'0 0.2
2014-Oct-18 10:32N 36°54' W 076°05'0 0.1
2014-Oct-18 09:33N 36°54' W 076°05'0 0.1
2014-Oct-18 08:24N 36°54' W 076°05'0 0.1
2014-Oct-18 07:33N 36°54' W 076°05'0 0.0
2014-Oct-18 06:24N 36°54' W 076°05'0 0.0
2014-Oct-18 05:22N 36°54' W 076°05'1 1.2
2014-Oct-18 04:28N 36°55' W 076°05'1 1.0
2014-Oct-18 03:33N 36°55' W 076°05'0 0.2
2014-Oct-18 02:33N 36°54' W 076°05'0 0.0
2014-Oct-18 01:33N 36°54' W 076°05'1 1.0
2014-Oct-18 00:32N 36°55' W 076°06'1 0.7
2014-Oct-17 23:33N 36°55' W 076°05'0 0.4
2014-Oct-17 22:33N 36°54' W 076°05'1 0.7
2014-Oct-17 21:33N 36°55' W 076°05'0 0.3
2014-Oct-17 20:33N 36°55' W 076°06'0 0.3
2014-Oct-17 19:32N 36°55' W 076°05'1 0.7
2014-Oct-17 18:30N 36°54' W 076°05'0 0.1
2014-Oct-17 17:30N 36°54' W 076°05'0 0.0
2014-Oct-17 16:33N 36°54' W 076°05'0 0.5
2014-Oct-17 15:33N 36°55' W 076°05'1 0.5
2014-Oct-17 14:33N 36°55' W 076°06'0 0.3
2014-Oct-17 13:33N 36°55' W 076°05'0 0.3
2014-Oct-17 12:33N 36°55' W 076°06'0 0.1
2014-Oct-17 11:33N 36°55' W 076°06'1 1.1
2014-Oct-17 10:33N 36°54' W 076°05'0 0.1
2014-Oct-17 09:32N 36°54' W 076°05'0 0.2
2014-Oct-17 08:32N 36°54' W 076°05'0 0.1
2014-Oct-17 07:33N 36°54' W 076°05'0 0.1
2014-Oct-17 06:33N 36°54' W 076°05'0 0.1
2014-Oct-17 05:33N 36°54' W 076°05'0 0.0
2014-Oct-17 04:32N 36°54' W 076°05'1 0.7
2014-Oct-17 03:30N 36°55' W 076°05'1 0.7
2014-Oct-17 02:33N 36°54' W 076°05'0 0.0
2014-Oct-17 01:27N 36°54' W 076°05'0 0.2
2014-Oct-17 00:33N 36°55' W 076°06'0 0.2
2014-Oct-16 23:33N 36°55' W 076°05'0 0.4
2014-Oct-16 22:32N 36°54' W 076°05'1 1.0
2014-Oct-16 21:33N 36°55' W 076°06'1 0.8
2014-Oct-16 20:31N 36°54' W 076°06'1 0.8
2014-Oct-16 19:33N 36°55' W 076°06'1 0.9
2014-Oct-16 18:33N 36°54' W 076°05'0 0.0
2014-Oct-16 17:32N 36°54' W 076°05'0 0.1
2014-Oct-16 16:33N 36°54' W 076°05'0 0.2
2014-Oct-16 15:32N 36°54' W 076°05'0 0.1
2014-Oct-16 14:33N 36°54' W 076°06'0 0.1
2014-Oct-16 13:32N 36°54' W 076°05'0 0.2
2014-Oct-16 12:33N 36°55' W 076°06'0 0.3
2014-Oct-16 11:32N 36°54' W 076°05'0 0.0
2014-Oct-16 10:24N 36°54' W 076°05'0 0.2
2014-Oct-16 09:33N 36°54' W 076°05'0 0.2
2014-Oct-16 08:32N 36°55' W 076°05'1 0.7
2014-Oct-16 07:33N 36°55' W 076°06'0 0.5
2014-Oct-16 06:31N 36°55' W 076°05'1 0.9
2014-Oct-16 05:33N 36°54' W 076°05'0 0.1
2014-Oct-16 04:31N 36°54' W 076°05'0 0.0
2014-Oct-16 03:30N 36°54' W 076°05'0 0.0
2014-Oct-16 02:30N 36°54' W 076°05'0 0.0
2014-Oct-16 01:29N 36°54' W 076°05'1 0.7
2014-Oct-16 00:33N 36°55' W 076°05'1 0.6
2014-Oct-15 23:33N 36°54' W 076°05'0 0.1
2014-Oct-15 22:33N 36°54' W 076°05'0 0.1
2014-Oct-15 21:33N 36°54' W 076°05'1 0.6
2014-Oct-15 20:31N 36°55' W 076°05'0 0.1
2014-Oct-15 19:29N 36°55' W 076°05'0 0.4
2014-Oct-15 18:33N 36°55' W 076°05'1 0.5
2014-Oct-15 17:27N 36°54' W 076°05'0 0.0
2014-Oct-15 16:33N 36°54' W 076°05'0 0.0
2014-Oct-15 15:32N 36°54' W 076°05'0 0.0
2014-Oct-15 14:33N 36°54' W 076°05'0 0.0
2014-Oct-15 13:33N 36°54' W 076°05'  
Track history (hours):
 
Tides and Currents Weather Stations Pressure Air Temp Water Temp Dewpoint Dewpoint Depression Visibility Wind Speed Wind Dir Waves Ship Positions

Currituck

Last reported at 2014-Oct-25 13:33 UTC. Time now 2014-Oct-26 09:33 UTC.
Position N 35°12' W 075°44'.

Length 45 m; draft 3 m.

Type: Dredging. MMSI: 369970446.

Date/timePositionNaut miles runAvg speedWind from/ knotsBaromVisibWave heightAir tempDewpointWater temp
2014-Oct-25 13:33N 35°12' W 075°44'  
2014-Oct-18 19:28N 36°47' W 076°18'7 7.4
2014-Oct-18 18:33N 36°53' W 076°20'8 7.6
2014-Oct-18 17:33N 37°00' W 076°16'8 7.6
2014-Oct-18 16:33N 36°59' W 076°07'4 4.4
2014-Oct-18 15:33N 36°54' W 076°05'1 0.7
2014-Oct-18 14:32N 36°55' W 076°05'1 0.7
2014-Oct-18 13:33N 36°54' W 076°05'0 0.0
2014-Oct-18 12:32N 36°54' W 076°05'0 0.2
2014-Oct-18 11:33N 36°55' W 076°06'0 0.2
2014-Oct-18 10:32N 36°54' W 076°05'0 0.1
2014-Oct-18 09:33N 36°54' W 076°05'0 0.1
2014-Oct-18 08:24N 36°54' W 076°05'0 0.1
2014-Oct-18 07:33N 36°54' W 076°05'0 0.0
2014-Oct-18 06:24N 36°54' W 076°05'0 0.0
2014-Oct-18 05:22N 36°54' W 076°05'1 1.2
2014-Oct-18 04:28N 36°55' W 076°05'1 1.0
2014-Oct-18 03:33N 36°55' W 076°05'0 0.2
2014-Oct-18 02:33N 36°54' W 076°05'0 0.0
2014-Oct-18 01:33N 36°54' W 076°05'1 1.0
2014-Oct-18 00:32N 36°55' W 076°06'1 0.7
2014-Oct-17 23:33N 36°55' W 076°05'0 0.4
2014-Oct-17 22:33N 36°54' W 076°05'1 0.7
2014-Oct-17 21:33N 36°55' W 076°05'0 0.3
2014-Oct-17 20:33N 36°55' W 076°06'0 0.3
2014-Oct-17 19:32N 36°55' W 076°05'1 0.7
2014-Oct-17 18:30N 36°54' W 076°05'0 0.1
2014-Oct-17 17:30N 36°54' W 076°05'0 0.0
2014-Oct-17 16:33N 36°54' W 076°05'0 0.5
2014-Oct-17 15:33N 36°55' W 076°05'1 0.5
2014-Oct-17 14:33N 36°55' W 076°06'0 0.3
2014-Oct-17 13:33N 36°55' W 076°05'0 0.3
2014-Oct-17 12:33N 36°55' W 076°06'0 0.1
2014-Oct-17 11:33N 36°55' W 076°06'1 1.1
2014-Oct-17 10:33N 36°54' W 076°05'0 0.1
2014-Oct-17 09:32N 36°54' W 076°05'0 0.2
2014-Oct-17 08:32N 36°54' W 076°05'0 0.1
2014-Oct-17 07:33N 36°54' W 076°05'0 0.1
2014-Oct-17 06:33N 36°54' W 076°05'0 0.1
2014-Oct-17 05:33N 36°54' W 076°05'0 0.0
2014-Oct-17 04:32N 36°54' W 076°05'1 0.7
2014-Oct-17 03:30N 36°55' W 076°05'1 0.7
2014-Oct-17 02:33N 36°54' W 076°05'0 0.0
2014-Oct-17 01:27N 36°54' W 076°05'0 0.2
2014-Oct-17 00:33N 36°55' W 076°06'0 0.2
2014-Oct-16 23:33N 36°55' W 076°05'0 0.4
2014-Oct-16 22:32N 36°54' W 076°05'1 1.0
2014-Oct-16 21:33N 36°55' W 076°06'1 0.8
2014-Oct-16 20:31N 36°54' W 076°06'1 0.8
2014-Oct-16 19:33N 36°55' W 076°06'1 0.9
2014-Oct-16 18:33N 36°54' W 076°05'0 0.0
2014-Oct-16 17:32N 36°54' W 076°05'0 0.1
2014-Oct-16 16:33N 36°54' W 076°05'0 0.2
2014-Oct-16 15:32N 36°54' W 076°05'0 0.1
2014-Oct-16 14:33N 36°54' W 076°06'0 0.1
2014-Oct-16 13:32N 36°54' W 076°05'0 0.2
2014-Oct-16 12:33N 36°55' W 076°06'0 0.3
2014-Oct-16 11:32N 36°54' W 076°05'0 0.0
2014-Oct-16 10:24N 36°54' W 076°05'0 0.2
2014-Oct-16 09:33N 36°54' W 076°05'0 0.2
2014-Oct-16 08:32N 36°55' W 076°05'1 0.7
2014-Oct-16 07:33N 36°55' W 076°06'0 0.5
2014-Oct-16 06:31N 36°55' W 076°05'1 0.9
2014-Oct-16 05:33N 36°54' W 076°05'0 0.1
2014-Oct-16 04:31N 36°54' W 076°05'0 0.0
2014-Oct-16 03:30N 36°54' W 076°05'0 0.0
2014-Oct-16 02:30N 36°54' W 076°05'0 0.0
2014-Oct-16 01:29N 36°54' W 076°05'1 0.7
2014-Oct-16 00:33N 36°55' W 076°05'1 0.6
2014-Oct-15 23:33N 36°54' W 076°05'0 0.1
2014-Oct-15 22:33N 36°54' W 076°05'0 0.1
2014-Oct-15 21:33N 36°54' W 076°05'1 0.6
2014-Oct-15 20:31N 36°55' W 076°05'0 0.1
2014-Oct-15 19:29N 36°55' W 076°05'0 0.4
2014-Oct-15 18:33N 36°55' W 076°05'1 0.5
2014-Oct-15 17:27N 36°54' W 076°05'0 0.0
2014-Oct-15 16:33N 36°54' W 076°05'0 0.0
2014-Oct-15 15:32N 36°54' W 076°05'0 0.0
2014-Oct-15 14:33N 36°54' W 076°05'0 0.0
2014-Oct-15 13:33N 36°54' W 076°05'  

Dump ship's entire track history